Regional Weather Roundup
Issued by NWS Wakefield, VA

Home | Current Version | Previous Version | Text Only | Print | Product List | Glossary On
Versions: 1 2 3 4 5 6 7 8 9 10 11 12 13 14 15 16 17 18 19 20 21 22 23 24 25 26 27 28 29 30 31 32 33 34 35 36 37 38 39 40 41 42 43 44 45 46 47
490
ASUS41 KAKQ 090014
RWRAKQ

REGIONAL WEATHER ROUNDUP
NATIONAL WEATHER SERVICE WAKEFIELD VA
700 PM EST MON FEB 08 2016

Note: "fair" indicates few or no clouds below 12,000 feet with no
significant weather and/or obstructions to visibility. * = Denotes
station may not report precipitation (e.g., rain,snow,etc.),
thunder or fog.

VAZ042-051-052>054-056-090100-
NORTHERN VIRGINIA

CITY           SKY/WX    TMP DP  RH WIND       PRES   REMARKS
WASH NATIONAL  CLOUDY    43  31  62 SE9       29.72R
DULLES         CLOUDY    42  26  53 SE10      29.69R
FORT BELVOIR   FAIR      43  29  58 S6        29.71R
QUANTICO       CLOUDY    42  33  70 SE13      29.73R
FREDERICKSBRG* CLOUDY    44  32  63 SE8       29.70R
STAFFORD*      CLOUDY    41  31  66 SE3       29.74S
WARRENTON      CLOUDY    43  32  65 SE7       29.69R
CULPEPER*      CLOUDY    43  27  54 S5        29.69S
MANASSAS*      CLOUDY    43  30  61 S8        29.70R
LEESBURG*      CLOUDY    45  32  61 S9        29.69R
WINCHESTER     CLOUDY    43  28  56 S12G20    29.65R
FRONT ROYAL*   CLOUDY    41  27  56 SE10G16   29.63S
LURAY*         CLOUDY    39  30  70 S9        29.65R
$$

VAZ048-049-060>072-079>083-090100-
CENTRAL AND SOUTH CENTRAL VIRGINIA

CITY           SKY/WX    TMP DP  RH WIND       PRES   REMARKS
RICHMOND       MOCLDY    41  31  67 SE8       29.70S
CHESTERFIELD*  CLOUDY   N/A N/A N/A S3        29.70F
PETERSBURG*    CLOUDY    45  26  47 CALM      29.69F
HANOVER        CLOUDY    45  28  51 SE3       29.71S
TAPPAHANNOCK*  MOCLDY    41  32  70 E6        29.74R
QUINTON*       CLOUDY    41  33  72 SE8       29.71R
CHARLOTTSVILLE LGT RAIN  41  32  70 SW5       29.67R
GORDONSVILLE*  CLOUDY    42  32  67 CALM      29.67F
ORANGE*        CLOUDY    43  30  61 S6        29.70S
LOUISA*        CLOUDY    45  30  57 CALM      29.66F
BUMPASS*       CLOUDY    43  29  58 CALM      29.69S
FARMVILLE*     RAIN      42  38  86 CALM      29.67R
CREWE*         CLOUDY    44  36  73 CALM      29.67S
FORT PICKETT*  CLOUDY    42  36  77 CALM      29.67F
CHASE CITY*    CLOUDY    41  40  95 CALM      29.67R
CLARKSVILLE*   CLOUDY    43  37  81 SW5       29.67R
SOUTH HILL*    CLOUDY    41  39  91 CALM      29.73F
LAWRENCEVILLE* CLOUDY    46  34  62 CALM      29.68S
EMPORIA*       MIX PCPN  45  32  61 CALM      29.70S
$$

VAZ088>098-090100-
SOUTHEAST VIRGINIA

CITY           SKY/WX    TMP DP  RH WIND       PRES   REMARKS
NORFOLK        FAIR      42  33  70 E7        29.72F
VIRGINIA BEACH CLOUDY    45  35  68 E10       29.72F
NORFOLK NAVAL  CLOUDY    42  34  73 E9        29.73F
WEST POINT*    CLOUDY    40  33  75 SE7       29.74R
SALUDA*        CLOUDY    39  36  87 SE6       29.74R
NEWPORT NEWS   MOCLDY    41  35  79 E8        29.72F
LANGLEY AFB    MOCLDY    41  35  79 SE6       29.71F
FORT EUSTIS    CLOUDY    41  31  68 E8        29.71R
WILLIAMSBURG*  CLOUDY    43  36  75 E8        29.73S
HR EXEC AP*    FAIR      41  34  75 E9        29.73S
FRANKLIN*      CLOUDY    42  34  74 E5        29.71R
US460-WAKEFLD  CLOUDY    43  34  70 E6        29.71R
$$

VAZ020-022-025-037-045-090100-
WEST CENTRAL AND SOUTHWEST VIRGINIA

CITY           SKY/WX    TMP DP  RH WIND       PRES   REMARKS
STAUNTON*      DRIZZLE   41  36  81 S3        29.66S
WAYNESBORO*    CLOUDY    37  32  82 SE3       29.63F
HOT SPRINGS VA CLOUDY   N/A N/A N/A CALM      29.53S
LYNCHBURG      MOCLDY    34  34 100 CALM      29.66F
DANVILLE       FAIR      36  33  89 CALM      29.67S
SOUTH BOSTON*  CLOUDY    42  37  80 NW3       29.67S
MARTINSVILLE   FAIR      30  29  96 CALM      29.68S
ROANOKE        CLOUDY    37  34  89 CALM      29.66R
BLACKSBURG     LGT SNOW  33  33 100 W7        29.66R VSB 3/4
DUBLIN*        CLOUDY    34  33  96 W8        29.66R
MARION*        CLOUDY    32  28  82 W9        29.67R
HILLSVILLE*    CLOUDY    32  29  88 NW12G20   29.62R WCI  23
RICHLANDS*     CLOUDY    31  26  83 W7        29.65S
WISE*          CLOUDY    32  23  69 W9        29.66R
ABINGDON*      FLURRIES  35  29  78 W5        29.67F
$$

MDZ021>025-VAZ099-100-090100-
SOUTHERN MARYLAND AND THE DELMARVA PENINSULA

CITY           SKY/WX    TMP DP  RH WIND       PRES   REMARKS
PATUXENT RIVER CLOUDY    40  33  76 SE12G20   29.73R
BAY BRIDGE APT   N/A     41  32  70 CALM      29.73S
LEONARDTOWN    CLOUDY    39  32  75 SE6       29.74S
DOVER          LGT RAIN  37  36  93 SE12      29.74R
GEORGETOWN     LGT RAIN  36  33  89 E9        29.76S
EASTON         CLOUDY    41  34  75 SE5       29.77R
CAMBRIDGE      PTCLDY    37  32  81 SE6       29.74R
SALISBURY      CLOUDY    38  34  85 SE5       29.76R
OCEAN CITY     CLOUDY    38  33  82 E9        29.76F
WALLOPS ISLAND CLOUDY    40  33  76 E8        29.77R
ACCOMACK*      CLOUDY    37  32  81 E6        29.75S
$$

NCZ012>017-030>032-090100-
NORTH CENTRAL AND EASTERN NORTH CAROLINA

CITY           SKY/WX    TMP DP  RH WIND       PRES   REMARKS
ROANOKE RAPIDS CLOUDY    46  32  57 CALM      29.68R
RALEIGH        LGT RAIN  41  38  89 SE6       29.68F
ELIZABETH CITY PTCLDY    42  36  79 E10       29.72F
AHOSKIE*       MOCLDY    46  31  58 CALM      29.69S
EDENTON*       CLOUDY    46  38  75 E10G17    29.70S
CURRITUCK*     PTCLDY    42  37  82 E3        29.74S
KILL DEVIL HLS MOCLDY    42  36  76 E5        29.71F
MANTEO         MOCLDY    42  37  83 SE8       29.74S
CAPE HATTERAS  PTCLDY    45  37  73 E7        29.72F
TARBORO*       CLOUDY    48  34  58 SE3       29.68S
GOLDSBORO      LGT RAIN  50  37  62 W16       29.67R
WASHINGTON     PTCLDY    46  33  59 CALM      29.69R
GREENVILLE     CLEAR     50  34  53 SE3       29.71S
NEW BERN       MOCLDY    45  36  70 CALM      29.70S
WILMINGTON     CLEAR     52  35  52 SW12      29.68F
$$

VAZ048-090100-
ELSEWHERE

CITY           SKY/WX    TMP DP  RH WIND       PRES   REMARKS
HARRISBURG PA  LGT RAIN  38  29  70 SE14      29.70R
BALTIMORE      CLOUDY    40  29  64 E9        29.71R
ANNAPOLIS      CLOUDY    40  33  76 SE6       29.72S
ANDREWS AFB    FAIR      40  30  68 SE10      29.70R
PHILADELPHIA   CLOUDY    38  24  57 E7        29.76R
HENDERSON NC   DRIZZLE   44  33  64 S14       29.68R
GREENSBORO     MOCLDY    39  33  79 CALM      29.65R
ROCKY MOUNT    LGT RAIN  49  36  61 W9G18     29.70R
$$

VAZ100-090100-
MARINE

STATION/POSITION TIME  TEMP    WIND        PRES    WAVE   SWELL
                       AIR SEA DIR/SP/G            HT/PER HT/PER
                 (UTC) (F)     (DEG/KT/KT) (MB)    (FT/S) (FT/S)
BRANDYWINE LGT   2300   36     130/ 16/ 17 1007.3R
CAPE MAY NJ      2300   36 43   90/  9/ 11 1007.6R
LEWES DE         2300   37 41  110/  9/ 13 1007.6R
15NM E FENWICK I 2350   38 44              1008.1R  12/14
OCEAN-CITY-INLET 2300   38 42   90/  6/  9 1007.1R
WACHAPREAGUE VA  2300   41 43  100/  9/ 13 1007.1F
THOMAS POINT MD  0000   40 39  130/  7/  8 1007.2
GOOSES REEF MD   0000   41 40  170/ 16/ 17 1007.6R   1/ 3
COVE POINT MD    2300   39     170/ 11/ 12 1007.1R
SOLOMONS ISLAND  2300   41 42  150/ 10/ 12   N/A
BISHOPS HEAD MD  2300   40 41  140/ 14/ 15 1005.9R
PINEY POINT MD   2300          160/ 11/ 12   N/A
POTOMAC MD       0000   40 41  150/ 14/ 17 1006.1R   2/ 3
CAMBRIDGE MD     2300   42 40  140/  3/  7 1006.0R
LEWISETTA VA     2300   41 41  150/  9/ 12 1006.3R
RAPPAHANNOCK LGT 2300          110/ 11/ 12 1007.3R
STINGRAY PT      0000   41 42  120/ 14/ 16 1006.7S   2/ 3
YORK RVR RNG VA  2300   42     130/ 15/ 16 1005.9R
YORKTOWN VA      2300   42 43  130/ 11/ 14 1006.2R
JAMESTOWN VA     0000   41 44  100/ 10/ 12   N/A     1
DOMINION TERM VA 2300   42     110/ 12/ 14 1006.4R
KIPTOPEKE VA     2300      43  110/  7/  9   N/A
CHES BAY BRIDGE  2300   42 44  100/  7/ 12 1006.4R
CAPE HENRY VA    2300   41     110/ 11/ 14   N/A
CHESAPEAKE LGHT  2300   42     100/ 12/ 13 1007.6R
WILLOUBY STN VA  2300   42     120/ 11/ 12   N/A
CAPE HENRY BUOY  2328      45                N/A     8/13   7/13
1ST LANDING BUOY 0000      44                N/A     7/ 8
CAPE CHARLES BUO 2326      44                N/A     9/14   8/14
OFFSHORE WE BUOY 2321      47                N/A    10/13  10/13
64NM E OF VA BCH 2350   45 52   10/  4/  8 1007.1F  15/14  15/14
DUCK PIER NC     2300   43     120/ 10/ 11 1006.5F
44100 DUCK FRF   2324      47                N/A    14/14  11/14
44056 DUCK FRF   2311      44                N/A    12/12  10/12
OREGON INLET NC  2300   43 45   90/  6/  8 1007.0F
HATTERAS NC      2300   48 51  110/  5/  7 1006.2F
DIAMOND SHLS NC  2350   54 74   30/  2/ 14 1006.3F  C1F1C2F2C3F3C4F4C5F5C6F6C7F7C8M1C9!



USA.gov is the U.S. government's official web portal to all federal, state and local government web resources and services.